Location: Casco Volunteer Fire Department
(44.5576°N, 87.6146°W)
Time: 05:01:17
(UTC+00:00)

Landsat 7 - Pass Details

Date: 22 January 2026
Orbit: 680 x 682 km, 97.9° (Epoch: 11 February)

Event Time Altitude Azimuth Distance (km) Brightness Sun altitude
Rises 12:30:57 0° 10° (N) 3,051 7.0 -8.7°
Reaches altitude 10° 12:33:12 10° 8° (N) 2,131 6.2 -8.3°
Maximum altitude 12:37:49 69° 286° (WNW) 732 3.7 -7.5°
Drops below altitude 10° 12:42:25 10° 204° (SSW) 2,114 6.3 -6.8°
Sets 12:44:39 0° 202° (SSW) 3,024 7.1 -6.4°
